Location: Highland Meadows Observing Site
(48.4428°N, 114.5461°W)
Time: 17:54:52
(UTC-06:00)

Amateur Radio Satellites - All Passes

Search period start: 24 March 2017 17:24
Search period end: 25 March 2017 17:24
Location: Highland Meadows Observing Site, 48.4428°N, 114.5461°W

Satellite Date Start Highest point End Downlink Frequencies (MHz)
Time Altitude Azimuth
LilacSat-2 24 Mar 17:26:52 17:28:08 11° 59° (ENE) 17:29:25 437.200
ITUPSAT 1 24 Mar 17:26:54 17:31:26 44° 292° (WNW) 17:35:57 437.325
XW-2F 24 Mar 17:29:42 17:30:51 11° 59° (ENE) 17:32:00 145.980 - 146.000
HO-68 24 Mar 17:39:15 17:42:13 13° 40° (NE) 17:45:12 435.675
KKS-1 24 Mar 17:46:41 17:50:51 35° 97° (E) 17:54:57 437.445
MOZHAYETS 4 24 Mar 17:49:06 17:53:34 54° 289° (WNW) 17:58:00
XW-2D 24 Mar 17:52:19 17:55:07 20° 64° (ENE) 17:57:54 145.860 - 145.880
XW-2B 24 Mar 17:58:00 18:00:58 22° 65° (ENE) 18:03:55 145.730 - 145.750
NUDT-PHONESAT 24 Mar 18:00:02 18:02:43 19° 64° (ENE) 18:05:24 437.300
CUTE-I 24 Mar 18:00:10 18:04:51 32° 63° (ENE) 18:09:35 437.470
O/OREOS (USA 219) 24 Mar 18:02:31 18:06:33 33° 106° (ESE) 18:10:40 437.305
KAITUO 1B 24 Mar 18:04:17 18:07:07 21° 65° (ENE) 18:09:58 145.475/437.950
XW-2C 24 Mar 18:07:43 18:10:59 27° 67° (ENE) 18:14:14 145.795 - 145.815
PCSat 24 Mar 18:21:18 18:25:42 24° 35° (NE) 18:30:05 145.827
DOVE 4 24 Mar 18:28:13 18:32:51 63° 71° (ENE) 18:37:48 437.250
RS-15 24 Mar 18:28:32 18:39:45 38° 353° (N) 18:50:57 29.354- 29.394
STARS 24 Mar 18:29:04 18:33:20 43° 99° (E) 18:37:33 437.465
CUBESAT XI-V 24 Mar 18:35:03 18:39:43 83° 103° (ESE) 18:44:23 437.345
SO-50 24 Mar 18:38:39 18:42:22 23° 327° (NNW) 18:46:03 436.795
XW-2A 24 Mar 18:48:02 18:49:21 12° 61° (ENE) 18:50:39 145.665 - 145.685
YUBILEINY 24 Mar 18:55:36 19:03:36 38° 66° (ENE) 19:11:33 435.215
LilacSat-2 24 Mar 18:58:00 19:01:51 80° 258° (WSW) 19:05:42 437.200
XW-2F 24 Mar 19:00:38 19:04:26 80° 257° (WSW) 19:08:14 145.980 - 146.000
SEEDS 24 Mar 19:11:12 19:13:28 15° 60° (ENE) 19:15:45 437.485
CUTE 1.7 + AOD 2 24 Mar 19:12:49 19:16:00 21° 64° (ENE) 19:19:12 437.475
HO-68 24 Mar 19:21:31 19:28:18 48° 63° (ENE) 19:35:05 435.675
KKS-1 24 Mar 19:23:25 19:27:18 29° 296° (WNW) 19:31:09 437.445
XW-2D 24 Mar 19:25:29 19:29:04 39° 262° (W) 19:32:41 145.860 - 145.880
XW-2B 24 Mar 19:31:28 19:34:59 35° 263° (W) 19:38:31 145.730 - 145.750
NUDT-PHONESAT 24 Mar 19:32:51 19:36:24 40° 262° (W) 19:39:58 437.300
M-CUBED/EXP-1 PRIME 24 Mar 19:34:02 19:38:05 29° 101° (E) 19:42:09 437.505
KAITUO 1B 24 Mar 19:37:29 19:40:58 35° 263° (W) 19:44:27 145.475/437.950
CUTE-I 24 Mar 19:39:39 19:44:46 44° 262° (W) 19:49:55 437.470
UWE-3 24 Mar 19:40:26 19:43:10 16° 59° (ENE) 19:45:53 435.000/436.395/437.385
O/OREOS (USA 219) 24 Mar 19:41:49 19:45:56 34° 306° (NW) 19:50:08 437.305
XW-2C 24 Mar 19:41:51 19:45:09 27° 265° (W) 19:48:26 145.795 - 145.815
PCSat 24 Mar 20:04:19 20:09:48 86° 236° (WSW) 20:15:14 145.827
STARS 24 Mar 20:05:53 20:09:27 24° 297° (WNW) 20:12:58 437.465
CUBEBUG 2 24 Mar 20:07:31 20:11:55 39° 68° (ENE) 20:16:19 437.445
DOVE 4 24 Mar 20:07:51 20:11:03 18° 272° (W) 20:14:24 437.250
STRAND 1 24 Mar 20:12:41 20:16:47 24° 92° (E) 20:20:51 437.568
CUBESAT XI-V 24 Mar 20:13:52 20:16:29 15° 302° (WNW) 20:19:05 437.345
XW-2A 24 Mar 20:18:14 20:21:39 61° 258° (WSW) 20:25:06 145.665 - 145.685
Oscar 11 24 Mar 20:22:25 20:25:14 17° 61° (ENE) 20:28:04 .
SO-50 24 Mar 20:23:12 20:24:28 11° 352° (N) 20:25:45 436.795
ZACube-1 24 Mar 20:25:02 20:28:37 23° 64° (ENE) 20:32:11 437.345
AAUSAT CUBESAT 2 24 Mar 20:35:25 20:39:21 48° 71° (ENE) 20:43:19 437.432
RS-15 24 Mar 20:44:14 20:56:04 46° 26° (NNE) 21:07:34 29.354- 29.394
SEEDS 24 Mar 20:44:30 20:48:39 70° 258° (WSW) 20:52:50 437.485
CUTE 1.7 + AOD 2 24 Mar 20:47:33 20:51:35 44° 262° (W) 20:55:38 437.475
YUBILEINY 24 Mar 20:52:22 21:00:49 58° 269° (W) 21:09:15 435.215
AO-73 24 Mar 20:53:57 20:58:10 38° 68° (ENE) 21:02:18 145.935
M-CUBED/EXP-1 PRIME 24 Mar 21:08:17 21:12:33 40° 297° (WNW) 21:16:54 437.505
HO-68 24 Mar 21:09:28 21:16:08 41° 263° (W) 21:22:50 435.675
UWE-3 24 Mar 21:14:22 21:19:03 79° 257° (WSW) 21:23:41 435.000/436.395/437.385
CUBEBUG 2 24 Mar 21:44:28 21:48:36 29° 266° (W) 21:52:44 437.445
PCSat 24 Mar 21:49:24 21:52:23 15° 256° (WSW) 21:55:21 145.827
STRAND 1 24 Mar 21:51:17 21:56:16 53° 291° (WNW) 22:01:13 437.568
Oscar 11 24 Mar 21:56:40 22:00:56 61° 259° (W) 22:05:14 .
ZACube-1 24 Mar 22:00:16 22:04:39 46° 261° (W) 22:09:00 437.345
SO-50 24 Mar 22:04:47 22:06:57 13° 17° (NNE) 22:09:05 436.795
AAUSAT CUBESAT 2 24 Mar 22:12:16 22:15:05 18° 269° (W) 22:17:56 437.432
DELFI C3 24 Mar 22:13:07 22:17:00 66° 74° (ENE) 22:20:56 145.870
ESTCUBE 1 24 Mar 22:25:24 22:25:34 10° 54° (NE) 22:25:45 437.505/2401.250
AO-73 24 Mar 22:30:39 22:34:28 26° 266° (W) 22:38:16 145.935
FO-29 24 Mar 22:33:10 22:33:55 10° 79° (ENE) 22:34:39 435.910
ISS 24 Mar 22:33:34 22:36:12 23° 141° (SE) 22:38:51 437.550
AO-85 24 Mar 22:38:37 22:42:52 54° 123° (ESE) 22:46:53 145.980
Tancredo 1 24 Mar 22:42:32 22:45:18 28° 144° (SE) 22:48:06 437.200
LO-87 24 Mar 22:50:53 22:53:42 22° 66° (ENE) 22:56:34 145.935 - 145.965
YUBILEINY 24 Mar 22:52:39 22:55:34 12° 292° (WNW) 22:58:29 435.215
UWE-3 24 Mar 22:55:41 22:56:13 10° 275° (W) 22:56:46 435.000/436.395/437.385
RS-15 24 Mar 22:57:36 23:10:00 84° 235° (SW) 23:21:52 29.354- 29.394
PRISM 24 Mar 23:18:24 23:22:33 66° 103° (ESE) 23:26:41 437.425
TIGRISAT 24 Mar 23:21:19 23:25:26 35° 96° (E) 23:29:26 435.000
UNISAT 6 24 Mar 23:30:45 23:35:05 46° 99° (E) 23:39:17 437.425
VELOX 1 24 Mar 23:43:13 23:46:18 19° 60° (ENE) 23:49:24 145.980
SO-50 24 Mar 23:44:30 23:48:42 36° 40° (NE) 23:52:51 436.795
DELFI C3 24 Mar 23:50:40 23:52:16 12° 272° (W) 23:53:52 145.870
ESTCUBE 1 24 Mar 23:57:04 00:01:31 67° 72° (ENE) 00:05:58 437.505/2401.250
50 SAT 24 Mar 23:58:33 00:00:03 12° 61° (ENE) 00:01:34 437.505
ISS 25 Mar 00:09:07 00:12:24 82° 340° (NNW) 00:15:43 437.550
UKube-1 25 Mar 00:12:17 00:14:06 12° 56° (NE) 00:15:53 .
FO-29 25 Mar 00:14:15 00:20:33 66° 101° (ESE) 00:26:05 435.910
Tancredo 1 25 Mar 00:18:06 00:21:17 69° 343° (NNW) 00:24:29 437.200
AO-85 25 Mar 00:19:57 00:23:30 25° 322° (NW) 00:26:55 145.980
NANOSAT C BR1 25 Mar 00:22:36 00:24:49 14° 89° (E) 00:27:02 145.865
LO-87 25 Mar 00:23:49 00:27:02 30° 264° (W) 00:30:17 145.935 - 145.965
EO-79 25 Mar 00:25:34 00:28:15 16° 90° (E) 00:30:55 145.935-145.965
BEESAT 3 25 Mar 00:32:38 00:36:34 80° 125° (SE) 00:40:35 437.485
SPROUT 25 Mar 00:40:35 00:44:46 52° 71° (ENE) 00:48:59 437.525
BEESAT 2 25 Mar 00:44:07 00:47:54 45° 121° (ESE) 00:51:45 435.950
POLYITAN 1 25 Mar 00:52:20 00:56:05 29° 95° (E) 00:59:47 437.675
PRISM 25 Mar 00:54:53 00:57:22 16° 300° (WNW) 00:59:51 437.425
QB50P2 25 Mar 00:56:45 01:00:40 35° 97° (E) 01:04:33 145.880/145.840
TIGRISAT 25 Mar 00:58:11 01:02:01 28° 295° (WNW) 01:05:45 435.000
DX 1 25 Mar 01:01:25 01:05:34 45° 69° (ENE) 01:09:45 434.975-435.025
AIST 2D 25 Mar 01:07:03 01:10:34 78° 102° (ESE) 01:14:02 435.315
UNISAT 6 25 Mar 01:08:03 01:11:30 22° 298° (WNW) 01:14:55 437.425
RS-15 25 Mar 01:11:22 01:20:41 27° 260° (W) 01:29:45 29.354- 29.394
DUCHIFAT 1 25 Mar 01:11:50 01:15:49 38° 98° (E) 01:19:45 145.980
VELOX 1 25 Mar 01:18:01 01:22:21 58° 258° (WSW) 01:26:45 145.980
SO-50 25 Mar 01:25:00 01:29:12 39° 240° (WSW) 01:33:23 436.795
50 SAT 25 Mar 01:29:16 01:32:40 57° 259° (W) 01:36:06 437.505
BUGSAT 1 25 Mar 01:35:53 01:39:23 25° 94° (E) 01:42:50 437.445
ESTCUBE 1 25 Mar 01:36:10 01:38:47 15° 271° (W) 01:41:24 437.505/2401.250
UKube-1 25 Mar 01:45:08 01:49:27 88° 68° (ENE) 01:53:48 .
ISS 25 Mar 01:45:55 01:49:07 45° 360° (N) 01:52:19 437.550
Tancredo 1 25 Mar 01:54:36 01:57:42 45° 2° (N) 02:00:49 437.200
NANOSAT C BR1 25 Mar 01:56:47 02:01:01 66° 287° (WNW) 02:05:10 145.865
FO-29 25 Mar 02:00:02 02:05:01 25° 304° (NW) 02:09:34 435.910
EO-79 25 Mar 02:00:12 02:04:23 57° 288° (WNW) 02:08:32 145.935-145.965
BEESAT 3 25 Mar 02:11:44 02:14:39 19° 327° (NNW) 02:17:38 437.485
SPROUT 25 Mar 02:18:01 02:20:59 18° 269° (W) 02:23:59 437.525
BEESAT 2 25 Mar 02:22:22 02:25:50 28° 321° (NW) 02:29:21 435.950
POLYITAN 1 25 Mar 02:28:06 02:31:51 31° 294° (WNW) 02:35:35 437.675
O/OREOS (USA 219) 25 Mar 02:29:34 02:33:00 20° 47° (NE) 02:36:25 437.305
QB50P2 25 Mar 02:32:46 02:36:21 27° 295° (WNW) 02:39:53 145.880/145.840
DX 1 25 Mar 02:38:38 02:41:58 21° 267° (W) 02:45:20 434.975-435.025
BEESAT 25 Mar 02:44:47 02:49:04 34° 65° (ENE) 02:53:22 436.000
DUCHIFAT 1 25 Mar 02:47:54 02:51:18 24° 296° (WNW) 02:54:41 145.980
Oscar 19 25 Mar 02:52:06 02:57:05 46° 99° (E) 03:02:03 437.125/150
Gurwin Techsat 1B 25 Mar 02:52:14 02:56:51 29° 94° (E) 03:01:24 435.225
ITUPSAT 1 25 Mar 02:59:28 03:04:01 44° 68° (ENE) 03:08:35 437.325
BUGSAT 1 25 Mar 03:10:58 03:14:49 35° 292° (WNW) 03:18:37 437.445
MOZHAYETS 4 25 Mar 03:17:56 03:21:52 29° 65° (ENE) 03:25:48
ISS 25 Mar 03:22:32 03:25:50 77° 20° (NNE) 03:29:08 437.550
UKube-1 25 Mar 03:25:03 03:26:07 11° 273° (W) 03:27:09 .
Tancredo 1 25 Mar 03:30:50 03:34:04 90° 168° (SSE) 03:37:17 437.200
CUBESAT XI-V 25 Mar 04:06:30 04:09:30 17° 59° (ENE) 04:12:30 437.345
O/OREOS (USA 219) 25 Mar 04:08:17 04:12:53 68° 247° (WSW) 04:17:26 437.305
BEESAT 25 Mar 04:22:31 04:26:50 33° 264° (W) 04:31:10 436.000
Oscar 19 25 Mar 04:31:50 04:36:12 29° 298° (WNW) 04:40:34 437.125/150
Gurwin Techsat 1B 25 Mar 04:31:54 04:36:58 46° 293° (WNW) 04:42:01 435.225
ITAMSAT 1 25 Mar 04:35:14 04:40:09 41° 98° (E) 04:45:02 435.822/435.867
ITUPSAT 1 25 Mar 04:38:04 04:42:02 25° 266° (W) 04:46:00 437.325
KKS-1 25 Mar 04:47:57 04:52:17 52° 70° (ENE) 04:56:39 437.445
AO-7 25 Mar 04:54:17 05:02:14 47° 100° (E) 05:10:08 .
MOZHAYETS 4 25 Mar 04:54:39 04:58:56 37° 263° (W) 05:03:12
ISS 25 Mar 04:59:18 05:02:04 25° 218° (SW) 05:04:50 437.550
Tancredo 1 25 Mar 05:07:30 05:09:52 19° 220° (SW) 05:12:14 437.200
AO-85 25 Mar 05:26:22 05:29:33 23° 36° (NE) 05:32:43 145.980
STARS 25 Mar 05:28:51 05:33:12 62° 72° (ENE) 05:37:37 437.465
CUBESAT XI-V 25 Mar 05:41:48 05:46:22 68° 258° (WSW) 05:50:59 437.345
ITAMSAT 1 25 Mar 06:14:55 06:19:31 32° 297° (WNW) 06:24:06 435.822/435.867
M-CUBED/EXP-1 PRIME 25 Mar 06:23:25 06:27:04 57° 66° (ENE) 06:31:04 437.505
DOVE 4 25 Mar 06:24:10 06:27:27 16° 87° (E) 06:30:42 437.250
KKS-1 25 Mar 06:25:55 06:29:09 19° 268° (W) 06:32:25 437.445
AO-7 25 Mar 06:47:13 06:55:04 49° 301° (WNW) 07:02:55 .
XW-2D 25 Mar 06:55:00 06:57:25 16° 91° (E) 06:59:49 145.860 - 145.880
NUDT-PHONESAT 25 Mar 07:00:38 07:02:45 14° 90° (E) 07:04:49 437.300
XW-2B 25 Mar 07:00:43 07:03:22 18° 92° (E) 07:05:59 145.730 - 145.750
KAITUO 1B 25 Mar 07:05:35 07:08:01 17° 91° (E) 07:10:26 145.475/437.950
AO-85 25 Mar 07:06:22 07:10:13 56° 236° (WSW) 07:14:08 145.980
STARS 25 Mar 07:07:11 07:09:58 16° 270° (W) 07:12:46 437.465
BEESAT 3 25 Mar 07:08:55 07:12:20 26° 38° (NE) 07:15:46 437.485
XW-2C 25 Mar 07:10:31 07:13:34 23° 94° (E) 07:16:35 145.795 - 145.815
BEESAT 2 25 Mar 07:21:05 07:24:02 19° 32° (NNE) 07:26:58 435.950
STRAND 1 25 Mar 07:31:51 07:36:48 49° 68° (ENE) 07:41:46 437.568
CUTE-I 25 Mar 07:52:26 07:57:44 56° 101° (E) 08:02:59 437.470
M-CUBED/EXP-1 PRIME 25 Mar 07:59:56 08:02:00 14° 266° (W) 08:04:09 437.505
DOVE 4 25 Mar 08:00:24 08:05:44 82° 285° (WNW) 08:11:02 437.250
LilacSat-2 25 Mar 08:01:41 08:05:29 88° 278° (W) 08:09:14 437.200
YUBILEINY 25 Mar 08:01:52 08:09:35 37° 84° (E) 08:17:18 435.215
NO-84 25 Mar 08:02:46 08:04:23 14° 132° (SE) 08:05:59 435.350 FM
XW-2F 25 Mar 08:03:09 08:06:55 89° 104° (ESE) 08:10:39 145.980 - 146.000
SEEDS 25 Mar 08:25:35 08:28:03 15° 89° (E) 08:30:30 437.485
XW-2D 25 Mar 08:28:16 08:31:51 44° 289° (WNW) 08:35:26 145.860 - 145.880
CUTE 1.7 + AOD 2 25 Mar 08:28:45 08:32:12 24° 93° (E) 08:35:36 437.475
HO-68 25 Mar 08:32:25 08:38:51 34° 95° (E) 08:45:15 435.675
NUDT-PHONESAT 25 Mar 08:33:23 08:36:57 48° 288° (WNW) 08:40:30 437.300
XW-2B 25 Mar 08:34:13 08:37:45 39° 290° (WNW) 08:41:15 145.730 - 145.750
KAITUO 1B 25 Mar 08:38:44 08:42:16 42° 289° (WNW) 08:45:45 145.475/437.950
AO-7 25 Mar 08:41:31 08:45:56 16° 325° (NW) 08:50:21 .
XW-2C 25 Mar 08:44:29 08:47:49 30° 292° (WNW) 08:51:08 145.795 - 145.815
BEESAT 3 25 Mar 08:46:15 08:50:11 50° 238° (WSW) 08:54:03 437.485
FO-29 25 Mar 08:48:26 08:51:53 14° 46° (NE) 08:55:14 435.910
BEESAT 2 25 Mar 08:58:16 09:02:21 87° 235° (SW) 09:06:25 435.950
UNISAT 6 25 Mar 09:00:26 09:01:18 10° 54° (NE) 09:02:08 437.425
UWE-3 25 Mar 09:01:33 09:04:16 16° 89° (E) 09:06:56 435.000/436.395/437.385
XW-2A 25 Mar 09:09:11 09:12:37 82° 103° (ESE) 09:15:59 145.665 - 145.685
STRAND 1 25 Mar 09:11:58 09:16:13 26° 267° (W) 09:20:30 437.568
CUBEBUG 2 25 Mar 09:30:58 09:35:19 48° 99° (E) 09:39:30 437.445
CUTE-I 25 Mar 09:33:06 09:37:27 26° 300° (WNW) 09:41:45 437.470
NO-84 25 Mar 09:38:41 09:41:32 73° 331° (NNW) 09:44:26 435.350 FM
DOVE 4 25 Mar 09:39:37 09:42:37 15° 304° (NW) 09:45:37 437.250
Oscar 11 25 Mar 09:40:44 09:43:50 19° 91° (E) 09:46:55 .
ZACube-1 25 Mar 09:45:07 09:48:42 26° 93° (E) 09:52:13 437.345
AAUSAT CUBESAT 2 25 Mar 09:48:49 09:52:53 54° 100° (E) 09:56:57 437.432
YUBILEINY 25 Mar 09:57:26 10:06:02 58° 286° (WNW) 10:14:38 435.215
SEEDS 25 Mar 10:00:00 10:04:08 60° 287° (WNW) 10:08:15 437.485
CUTE 1.7 + AOD 2 25 Mar 10:04:15 10:08:08 37° 291° (WNW) 10:12:02 437.475
PRISM 25 Mar 10:10:56 10:14:59 77° 74° (ENE) 10:19:06 437.425
AO-73 25 Mar 10:14:05 10:18:11 45° 98° (E) 10:22:11 145.935
HO-68 25 Mar 10:19:56 10:26:54 57° 295° (WNW) 10:33:51 435.675
TIGRISAT 25 Mar 10:22:53 10:27:24 49° 70° (ENE) 10:31:55 435.000
FO-29 25 Mar 10:28:01 10:35:28 51° 66° (ENE) 10:42:25 435.910
UNISAT 6 25 Mar 10:32:28 10:37:07 65° 73° (ENE) 10:41:45 437.425
UWE-3 25 Mar 10:36:51 10:41:09 58° 288° (WNW) 10:45:19 435.000/436.395/437.385
BEESAT 2 25 Mar 10:38:16 10:39:28 11° 251° (WSW) 10:40:39 435.950
PCSat 25 Mar 10:49:40 10:54:41 40° 114° (ESE) 10:59:45 145.827
CUBEBUG 2 25 Mar 11:08:13 11:11:36 21° 298° (WNW) 11:14:54 437.445
Oscar 11 25 Mar 11:16:05 11:20:15 49° 289° (WNW) 11:24:24 .
NO-84 25 Mar 11:16:59 11:19:26 24° 352° (N) 11:21:59 435.350 FM
NANOSAT C BR1 25 Mar 11:17:58 11:20:53 18° 61° (ENE) 11:23:49 145.865
DELFI C3 25 Mar 11:21:00 11:24:59 66° 101° (ESE) 11:28:57 145.870
ZACube-1 25 Mar 11:21:11 11:25:04 35° 292° (WNW) 11:28:53 437.345
EO-79 25 Mar 11:21:18 11:24:30 21° 62° (ENE) 11:27:43 145.935-145.965
AAUSAT CUBESAT 2 25 Mar 11:25:11 11:27:59 18° 298° (WNW) 11:30:47 437.432
AIST 2D 25 Mar 11:44:44 11:48:10 48° 72° (ENE) 11:51:36 435.315
LO-87 25 Mar 11:47:35 11:49:58 16° 91° (E) 11:52:20 145.935 - 145.965
POLYITAN 1 25 Mar 11:48:06 11:52:02 36° 68° (ENE) 11:56:00 437.675
ESTCUBE 1 25 Mar 11:48:13 11:49:17 11° 86° (E) 11:50:21 437.505/2401.250
PRISM 25 Mar 11:49:29 11:50:48 11° 272° (W) 11:52:09 437.425
AO-73 25 Mar 11:50:57 11:54:09 21° 297° (WNW) 11:57:17 145.935
QB50P2 25 Mar 11:52:31 11:56:34 43° 69° (ENE) 12:00:38 145.880/145.840
YUBILEINY 25 Mar 12:00:28 12:05:09 15° 312° (NW) 12:09:52 435.215
TIGRISAT 25 Mar 12:00:41 12:04:20 22° 268° (W) 12:07:59 435.000
DUCHIFAT 1 25 Mar 12:06:47 12:10:50 46° 70° (ENE) 12:14:57 145.980
HO-68 25 Mar 12:09:25 12:13:10 15° 317° (NW) 12:16:57 435.675
UNISAT 6 25 Mar 12:11:12 12:14:15 17° 271° (W) 12:17:18 437.425
FO-29 25 Mar 12:13:14 12:20:33 42° 264° (W) 12:27:29 435.910
BUGSAT 1 25 Mar 12:28:46 12:32:27 30° 66° (ENE) 12:36:10 437.445
PCSat 25 Mar 12:32:59 12:38:06 41° 315° (NW) 12:43:16 145.827
Oscar 19 25 Mar 12:35:53 12:39:05 17° 56° (NE) 12:42:19 437.125/150
Gurwin Techsat 1B 25 Mar 12:40:59 12:43:06 12° 51° (NE) 12:45:12 435.225
NANOSAT C BR1 25 Mar 12:52:02 12:56:13 56° 260° (W) 13:00:27 145.865
NO-84 25 Mar 12:54:58 12:57:37 27° 13° (NNE) 13:00:24 435.350 FM
EO-79 25 Mar 12:55:50 12:59:58 47° 260° (W) 13:04:09 145.935-145.965
DELFI C3 25 Mar 12:57:09 12:59:18 14° 300° (WNW) 13:01:28 145.870
VELOX 1 25 Mar 13:04:45 13:08:06 20° 92° (E) 13:11:26 145.980
AIST 2D 25 Mar 13:19:51 13:21:40 13° 270° (W) 13:23:30 435.315
LO-87 25 Mar 13:20:09 13:23:38 41° 289° (WNW) 13:27:05 145.935 - 145.965
ESTCUBE 1 25 Mar 13:22:15 13:26:47 87° 106° (ESE) 13:31:18 437.505/2401.250
POLYITAN 1 25 Mar 13:24:19 13:27:55 26° 266° (W) 13:31:31 437.675
RS-15 25 Mar 13:24:50 13:35:52 45° 110° (ESE) 13:47:11 29.354- 29.394
QB50P2 25 Mar 13:29:13 13:32:33 22° 267° (W) 13:35:54 145.880/145.840
UKube-1 25 Mar 13:30:38 13:31:55 11° 87° (E) 13:33:12 .
DUCHIFAT 1 25 Mar 13:43:36 13:46:45 20° 268° (W) 13:49:55 145.980
SPROUT 25 Mar 13:58:10 14:02:27 60° 101° (ESE) 14:06:40 437.525
BUGSAT 1 25 Mar 14:03:59 14:07:46 31° 264° (W) 14:11:35 437.445
AO-7 25 Mar 14:07:14 14:13:40 26° 46° (NE) 14:20:05 .
Oscar 19 25 Mar 14:12:38 14:17:46 85° 255° (WSW) 14:22:56 437.125/150
Gurwin Techsat 1B 25 Mar 14:16:48 14:22:04 65° 71° (ENE) 14:27:21 435.225
PCSat 25 Mar 14:20:02 14:23:00 15° 338° (NNW) 14:26:00 145.827
ITAMSAT 1 25 Mar 14:20:04 14:23:15 17° 55° (NE) 14:26:26 435.822/435.867
DX 1 25 Mar 14:21:36 14:25:53 49° 100° (E) 14:30:09 434.975-435.025
50 SAT 25 Mar 14:22:38 14:26:10 87° 99° (E) 14:29:41 437.505
NO-84 25 Mar 14:32:19 14:35:25 85° 212° (SSW) 14:38:47 435.350 FM
VELOX 1 25 Mar 14:40:30 14:44:49 49° 290° (WNW) 14:49:07 145.980
ESTCUBE 1 25 Mar 15:00:41 15:02:57 14° 303° (WNW) 15:05:12 437.505/2401.250
UKube-1 25 Mar 15:04:12 15:08:34 86° 290° (WNW) 15:12:54 .
SPROUT 25 Mar 15:35:05 15:37:56 17° 299° (WNW) 15:40:46 437.525
RS-15 25 Mar 15:35:42 15:47:51 71° 315° (NW) 16:00:17 29.354- 29.394
SO-50 25 Mar 15:42:41 15:46:34 27° 116° (ESE) 15:50:24 436.795
Oscar 19 25 Mar 15:55:46 15:57:53 12° 274° (W) 16:00:00 437.125/150
ITAMSAT 1 25 Mar 15:56:46 16:02:01 89° 65° (ENE) 16:07:17 435.822/435.867
AO-7 25 Mar 15:57:03 16:05:24 85° 69° (ENE) 16:13:46 .
DX 1 25 Mar 15:58:26 16:01:46 21° 298° (WNW) 16:05:04 434.975-435.025
Gurwin Techsat 1B 25 Mar 15:58:34 16:02:29 20° 270° (W) 16:06:24 435.225
PCSat 25 Mar 16:07:40 16:08:56 11° 5° (N) 16:10:11 145.827
NO-84 25 Mar 16:10:53 16:12:37 14° 228° (SW) 16:14:24 435.350 FM
BEESAT 25 Mar 16:18:08 16:22:44 46° 99° (E) 16:27:17 436.000
ITUPSAT 1 25 Mar 16:33:30 16:38:15 62° 102° (ESE) 16:42:57 437.325
UKube-1 25 Mar 16:42:10 16:43:54 12° 304° (NW) 16:45:39 .
MOZHAYETS 4 25 Mar 16:45:26 16:49:42 38° 97° (E) 16:53:56
